Location: Observatory
(52.1446°N, 0.4624°W)
Time: 00:35:48
(UTC+00:00)

ISS - Pass Details

Date: 06 December 2021
Orbit: 413 x 422 km, 51.6° (Epoch: 28 January)

Event Time Altitude Azimuth Distance (km) Brightness Sun altitude
Rises 18:24:45 0° 278° (W) 2,385 1.4 -22.4°
Reaches altitude 10° 18:27:55 10° 246° (WSW) 1,512 0.1 -22.9°
Maximum altitude 18:29:17 12° 222° (SW) 1,390 -0.5 -23.1°
Drops below altitude 10° 18:30:40 10° 198° (SSW) 1,505 -0.7 -23.3°
Enters shadow 18:31:47 - 183° (S) 1,743 -0.5 -23.5°
